Change the Weather History Date:

Wednesday, September 25, 2013

  Actual Average Record
Temperature  
Mean Temperature 56 °F -  
Max Temperature 61 °F 59 °F - ()
Min Temperature 51 °F 42 °F - ()
Degree Days  
Heating Degree Days 9    
Growing Degree Days 6 (Base 50)    
Moisture  
Dew Point 46 °F    
Average Humidity 71    
Maximum Humidity 88    
Minimum Humidity 46    
Precipitation  
Precipitation 0.00 in 0.04 in - ()
Sea Level Pressure  
Sea Level Pressure 29.95 in    
Wind  
Wind Speed 5 mph ()    
Max Wind Speed 18 mph    
Max Gust Speed -    
Visibility 6.8 miles    
Events      
T = Trace of Precipitation, MM = Missing Value Source: Averaged Metar Reports

Daily Weather History Graph

Daily Weather History Graph

Search for Another Location

Airport or City:

Trip Planner

Search our weather history database for the weather conditions in past years. The results will help you decide how hot, cold, wet, or windy it might be!

Date:

Astronomy

Sep. 25, 2013 Rise Set
Actual Time 6:44 AM CEST 6:44 PM CEST
Civil Twilight 6:12 AM CEST 7:16 PM CEST
Nautical Twilight 5:35 AM CEST 7:53 PM CEST
Astronomical Twilight 4:56 AM CEST 8:31 PM CEST
Moon 10:08 PM CEST (9/25) 1:02 PM CEST (9/25)
Length of Visible Light 13h 03m
Length of Day
12h 00m
Waning Gibbous, 66% of the Moon is Illuminated
Sep 25
Waning Gibbous
Sep 27
Last Quarter
Oct 5
New
Oct 12
First Quarter
Oct 19
Full

Hourly Weather History & Observations

Time (CEST) Temp. Dew Point Humidity Pressure Visibility Wind Dir Wind Speed Gust Speed Precip Events Conditions
12:00 AM 55.4 °F 50.0 °F 82% 29.95 in - West 3.5 mph - N/A   Clear
12:30 AM 53.6 °F 50.0 °F 88% 29.95 in - SSW 3.5 mph - N/A   Clear
1:00 AM 53.6 °F 50.0 °F 88% 29.95 in - Calm Calm - N/A   Clear
1:30 AM 53.6 °F 50.0 °F 88% 29.95 in - Variable 2.3 mph - N/A   Clear
2:00 AM 52 °F 48 °F 81% 29.99 in 12 mi ENE 17.9 mph - -   Overcast
2:00 AM 51.8 °F 48.2 °F 88% 29.98 in 6.2 mi ENE 18.4 mph - N/A   Overcast
2:30 AM 51.8 °F 46.4 °F 82% 29.98 in 6.2 mi ENE 15.0 mph - N/A   Overcast
3:00 AM 51.8 °F 46.4 °F 82% 29.98 in 6.2 mi ENE 12.7 mph - N/A   Overcast
3:30 AM 51.8 °F 44.6 °F 76% 29.98 in 6.2 mi ENE 8.1 mph - N/A   Overcast
4:00 AM 51.8 °F 44.6 °F 76% 29.98 in 6.2 mi NE 5.8 mph - N/A   Overcast
4:30 AM 51.8 °F 44.6 °F 76% 29.98 in 6.2 mi NE 3.5 mph - N/A   Overcast
5:00 AM 51.8 °F 44.6 °F 76% 29.98 in 6.2 mi Calm Calm - N/A   Overcast
5:30 AM 51.8 °F 42.8 °F 71% 29.98 in 6.2 mi Calm Calm - N/A   Overcast
6:00 AM 51.8 °F 44.6 °F 76% 29.98 in 6.2 mi North 3.5 mph - N/A   Mostly Cloudy
6:30 AM 51.8 °F 44.6 °F 76% 29.98 in 6.2 mi North 3.5 mph - N/A   Mostly Cloudy
7:00 AM 51.8 °F 42.8 °F 71% 29.98 in 6.2 mi North 2.3 mph - N/A   Mostly Cloudy
7:34 AM 51.8 °F 44.6 °F 76% 29.98 in 6.2 mi North 3.5 mph - N/A   Mostly Cloudy
8:00 AM 52 °F 43 °F 64% 30.01 in 19 mi North 2.2 mph - -   Mostly Cloudy
8:00 AM 51.8 °F 42.8 °F 71% 29.98 in 6.2 mi Variable 2.3 mph - N/A   Mostly Cloudy
8:30 AM 51.8 °F 42.8 °F 71% 30.01 in 6.2 mi Variable 2.3 mph - N/A   Mostly Cloudy
9:00 AM 51.8 °F 44.6 °F 76% 30.01 in 6.2 mi NE 3.5 mph - N/A   Mostly Cloudy
9:30 AM 51.8 °F 44.6 °F 76% 30.01 in 6.2 mi ENE 5.8 mph - N/A   Mostly Cloudy
10:00 AM 53.6 °F 44.6 °F 72% 30.01 in 6.2 mi East 8.1 mph - N/A   Mostly Cloudy
10:30 AM 53.6 °F 44.6 °F 72% 30.01 in 6.2 mi ENE 6.9 mph - N/A   Mostly Cloudy
11:00 AM 55.4 °F 44.6 °F 67% 30.01 in 6.2 mi ESE 6.9 mph - N/A   Mostly Cloudy
11:30 AM 55.4 °F 44.6 °F 67% 30.01 in 6.2 mi ESE 5.8 mph - N/A   Mostly Cloudy
12:00 PM 55.4 °F 44.6 °F 67% 30.01 in 6.2 mi SE 4.6 mph - N/A   Mostly Cloudy
12:30 PM 55.4 °F 44.6 °F 67% 30.01 in - SE 4.6 mph - N/A   Clear
1:00 PM 57.2 °F 44.6 °F 63% 29.98 in - SE 4.6 mph - N/A   Clear
1:30 PM 57.2 °F 44.6 °F 63% 29.98 in - SE 4.6 mph - N/A   Clear
2:00 PM 58 °F 43 °F 46% 29.97 in 31 mi SE 4.5 mph - -   Mostly Cloudy
2:00 PM 57.2 °F 42.8 °F 59% 29.98 in - ESE 3.5 mph - N/A   Clear
2:30 PM 57.2 °F 44.6 °F 63% 29.95 in - ESE 3.5 mph - N/A   Clear
3:00 PM 59.0 °F 42.8 °F 55% 29.95 in - SE 3.5 mph - N/A   Clear
3:30 PM 60.8 °F 46.4 °F 59% 29.92 in - SE 5.8 mph - N/A   Clear
4:00 PM 60.8 °F 44.6 °F 55% 29.92 in - ESE 4.6 mph - N/A   Clear
4:30 PM 60.8 °F 46.4 °F 59% 29.92 in - ESE 3.5 mph - N/A   Clear
5:00 PM 60.8 °F 46.4 °F 59% 29.89 in - East 4.6 mph - N/A   Clear
5:30 PM 60.8 °F 46.4 °F 59% 29.92 in - NE 5.8 mph - N/A   Clear
6:00 PM 60.8 °F 44.6 °F 55% 29.89 in - ENE 4.6 mph - N/A   Clear
6:30 PM 59.0 °F 46.4 °F 63% 29.89 in - East 5.8 mph - N/A   Clear
7:00 PM 57.2 °F 46.4 °F 67% 29.89 in - ENE 5.8 mph - N/A   Clear
7:30 PM 57.2 °F 46.4 °F 67% 29.89 in - NE 5.8 mph - N/A   Clear
8:00 PM 56 °F 46 °F 60% 29.90 in 25 mi ENE 6.7 mph - -   Partly Cloudy
8:00 PM 55.4 °F 46.4 °F 72% 29.89 in - ENE 6.9 mph - N/A   Clear
8:30 PM 55.4 °F 46.4 °F 72% 29.89 in - ENE 6.9 mph - N/A   Clear
9:00 PM 55.4 °F 46.4 °F 72% 29.89 in 6.2 mi ENE 4.6 mph - N/A   Mostly Cloudy
9:30 PM 55.4 °F 46.4 °F 72% 29.89 in 6.2 mi ENE 4.6 mph - N/A   Mostly Cloudy
10:00 PM 55.4 °F 46.4 °F 72% 29.89 in 6.2 mi Variable 2.3 mph - N/A   Mostly Cloudy
10:30 PM 53.6 °F 46.4 °F 77% 29.89 in 6.2 mi ENE 2.3 mph - N/A   Mostly Cloudy
11:00 PM 53.6 °F 46.4 °F 77% 29.89 in 6.2 mi Variable 1.2 mph - N/A   Mostly Cloudy
11:30 PM 53.6 °F 48.2 °F 82% 29.86 in 6.2 mi Variable 2.3 mph - N/A   Mostly Cloudy